GW7005 Weather Reports


time (UTC)temp
F
wind
direction
speed
knots
gust
knots
rain 1hr
in
rain 24hr
in
rain mn
in
humidity
%
barometer
mb
20260906121530 71 209 0.0 0.0 0.00 0.39 0.00 97 1018.3
20260906120019 71 209 0.0 0.0 0.00 0.39 0.00 96 1018.1
20260906114531 71 209 0.0 0.0 0.00 0.39 0.00 96 1018.1
20260906113022 71 209 0.0 0.0 0.00 0.39 0.00 96 1018.0
20260906111522 71 209 0.0 0.0 0.00 0.39 0.00 96 1017.7
20260906110031 71 209 0.0 0.0 0.00 0.39 0.00 96 1017.7
20260906104515 71 209 0.0 0.0 0.00 0.39 0.00 95 1017.5
20260906103032 71 209 0.0 0.0 0.00 0.39 0.00 95 1017.6
20260906101524 71 209 0.0 0.0 0.00 0.39 0.00 95 1017.5
20260906100017 72 209 0.0 0.0 0.00 0.39 0.00 95 1017.3
20260906094528 72 209 0.0 0.0 0.00 0.39 0.00 94 1017.0
20260906093020 72 209 0.0 0.0 0.00 0.39 0.00 94 1017.0
20260906091553 72 209 0.0 0.0 0.00 0.39 0.00 94 1016.8
20260906090022 72 209 0.0 0.0 0.00 0.39 0.00 94 1016.9
20260906084515 72 208 0.0 0.0 0.00 0.39 0.00 94 1016.7
20260906083026 72 208 0.0 0.0 0.00 0.39 0.00 94 1016.7
20260906081517 72 208 0.0 0.0 0.00 0.39 0.00 93 1016.6
20260906080028 72 208 0.0 0.9 0.00 0.39 0.00 93 1016.7
20260906074516 73 208 0.0 0.9 0.00 0.39 0.00 92 1016.6
20260906073021 73 208 0.0 3.5 0.00 0.39 0.00 92 1016.8
20260906071532 73 235 0.0 3.5 0.00 0.39 0.00 92 1016.9
20260906070022 73 248 0.0 0.9 0.00 0.39 0.00 91 1016.8
20260906064553 73 231 0.0 1.7 0.00 0.39 0.00 91 1016.5
20260906063042 73 210 0.0 0.0 0.00 0.39 0.00 91 1016.5
20260906061542 73 215 0.0 1.7 0.00 0.39 0.00 92 1016.7
20260906060023 73 236 0.0 0.9 0.00 0.39 0.00 92 1016.9
20260906054554 73 228 0.9 3.5 0.00 0.39 0.00 92 1017.1
20260906053042 73 219 0.9 3.5 0.00 0.39 0.00 91 1017.3
20260906051525 73 234 0.9 3.5 0.00 0.39 0.00 90 1017.5
20260906050031 73 235 0.9 2.6 0.00 0.39 0.39 90 1017.7
20260906044534 74 283 0.9 4.3 0.00 0.39 0.39 90 1017.7
20260906043021 74 232 0.0 0.9 0.00 0.39 0.39 91 1017.6
20260906041532 74 274 0.0 0.9 0.00 0.39 0.39 90 1017.7
20260906040015 74 274 0.0 0.9 0.01 0.39 0.39 90 1017.9
20260905194555 103 207 0.0 1.7 0.00 0.00 0.00 37 1018.4
20260905193017 102 110 0.0 4.3 0.00 0.00 0.00 40 1018.4
20260905191524 102 68 0.9 3.5 0.00 0.00 0.00 40 1018.4
20260905190049 100 89 0.0 1.7 0.00 0.00 0.00 41 1018.9
20260905184554 99 160 0.0 1.7 0.00 0.00 0.00 44 1019.0
20260905183022 99 214 0.0 2.6 0.00 0.00 0.00 43 1019.1
20260905181521 98 91 0.0 0.9 0.00 0.00 0.00 48 1019.2
20260905180049 98 210 0.0 5.2 0.00 0.00 0.00 46 1019.4
20260905174535 98 113 0.0 0.9 0.00 0.00 0.00 47 1019.5
20260905173022 98 134 0.0 0.9 0.00 0.00 0.00 47 1019.6
20260905171530 98 96 0.0 1.7 0.00 0.00 0.00 48 1019.7
20260905170019 98 80 0.0 1.7 0.00 0.00 0.00 47 1019.9
20260905164544 97 119 0.0 1.7 0.00 0.00 0.00 49 1019.9
20260905163022 96 245 0.9 2.6 0.00 0.00 0.00 52 1020.1
20260905161520 96 91 0.0 1.7 0.00 0.00 0.00 53 1019.9
20260905160023 95 236 0.0 1.7 0.00 0.00 0.00 54 1019.8
20260905154549 94 203 0.0 0.9 0.00 0.00 0.00 57 1020.1
20260905153029 92 60 0.0 2.6 0.00 0.00 0.00 58 1020.4
20260905151533 92 108 0.0 0.9 0.00 0.00 0.00 59 1020.2
20260905150039 90 114 0.9 1.7 0.00 0.00 0.00 62 1020.2
20260905144522 88 100 0.0 0.9 0.00 0.00 0.00 67 1020.1
20260905143025 86 100 0.0 0.9 0.00 0.00 0.00 70 1020.3
20260905141527 85 100 0.0 0.9 0.00 0.00 0.00 74 1019.9
20260905140033 84 100 0.0 0.9 0.00 0.00 0.00 76 1019.9
20260905134540 82 100 0.0 0.9 0.00 0.00 0.00 80 1019.9
20260905133029 81 101 0.0 0.0 0.00 0.00 0.00 81 1019.9
20260905131515 80 100 0.0 0.0 0.00 0.00 0.00 82 1020.1
20260905130045 79 100 0.0 0.0 0.00 0.00 0.00 84 1019.9
20260905124516 78 100 0.0 0.0 0.00 0.00 0.00 84 1019.9
20260905123019 78 100 0.0 0.0 0.00 0.00 0.00 84 1019.9